Change the Weather History Date:

Monday, April 29, 2013

  Actual Average Record
Temperature  
Mean Temperature 61 °F 50 °F  
Max Temperature 72 °F 61 °F 91 °F (1952)
Min Temperature 50 °F 39 °F 19 °F (1956)
Degree Days  
Heating Degree Days 4 15  
Month to date heating degree days 803 616  
Since 1 July heating degree days 7879 7837  
Cooling Degree Days 0 0  
Month to date cooling degree days 0 0  
Year to date cooling degree days 0 0  
Growing Degree Days 11 (Base 50)    
Moisture  
Dew Point 50 °F    
Average Humidity 70    
Maximum Humidity 96    
Minimum Humidity 44    
Precipitation  
Precipitation 0.22 in 0.11 in 1.92 in (1984)
Month to date precipitation 4.19 2.62  
Year to date precipitation 9.52 6.32  
Snow  
Snow 0.00 in 0.00 in 9.00 in (1956)
Month to date snowfall 10.1 4.0  
Since 1 July snowfall 78.8 59.3  
Snow Depth 0.00 in    
Sea Level Pressure  
Sea Level Pressure 29.75 in    
Wind  
Wind Speed 6 mph (SSE)    
Max Wind Speed 20 mph    
Max Gust Speed 24 mph    
Visibility 9 miles    
Events Rain    
T = Trace of Precipitation, MM = Missing Value Source: NWS Daily Summary

Daily Weather History Graph

Daily Weather History Graph

Search for Another Location

Airport or City:

Trip Planner

Search our weather history database for the weather conditions in past years. The results will help you decide how hot, cold, wet, or windy it might be!

Date:

Astronomy

Apr. 29, 2013 Rise Set
Actual Time 5:50 AM CDT 8:01 PM CDT
Civil Twilight 5:18 AM CDT 8:34 PM CDT
Nautical Twilight 4:38 AM CDT 9:13 PM CDT
Astronomical Twilight 3:54 AM CDT 9:58 PM CDT
Moon No Moon Rise 9:06 AM CDT (4/29)
Length of Visible Light 15h 15m
Length of Day
14h 11m
Waning Gibbous, 80% of the Moon is Illuminated
Apr 29
Waning Gibbous
May 2
Last Quarter
May 9
New
May 17
First Quarter
May 24
Full

Hourly Weather History & Observations

Time (CDT) Temp. Dew Point Humidity Pressure Visibility Wind Dir Wind Speed Gust Speed Precip Events Conditions
12:54 AM 55.0 °F 42.1 °F 62% 29.78 in 10.0 mi South 3.5 mph - N/A   Mostly Cloudy
1:54 AM 55.9 °F 42.1 °F 60% 29.78 in 10.0 mi Calm Calm - 0.00 in Rain Light Rain
2:54 AM 53.1 °F 46.9 °F 80% 29.78 in 10.0 mi Calm Calm - 0.01 in Rain Light Rain
3:54 AM 52.0 °F 48.0 °F 86% 29.78 in 4.0 mi Calm Calm - 0.12 in Rain Rain
4:54 AM 51.1 °F 48.9 °F 92% 29.79 in 5.0 mi SE 5.8 mph - 0.08 in Rain Light Rain
5:54 AM 51.1 °F 48.9 °F 92% 29.78 in 6.0 mi Calm Calm - 0.01 in   Mostly Cloudy
6:54 AM 52.0 °F 50.0 °F 93% 29.80 in 7.0 mi Calm Calm - N/A   Scattered Clouds
7:54 AM 54.0 °F 48.9 °F 83% 29.80 in 8.0 mi Calm Calm - N/A   Overcast
8:54 AM 54.0 °F 51.1 °F 90% 29.79 in 6.0 mi SSE 5.8 mph - N/A   Overcast
9:54 AM 57.0 °F 51.1 °F 81% 29.79 in 9.0 mi Calm Calm - N/A   Overcast
10:54 AM 61.0 °F 52.0 °F 72% 29.79 in 10.0 mi SSW 3.5 mph - N/A   Partly Cloudy
11:54 AM 64.9 °F 52.0 °F 63% 29.78 in 10.0 mi South 10.4 mph - N/A   Partly Cloudy
12:54 PM 66.0 °F 52.0 °F 60% 29.77 in 10.0 mi South 8.1 mph - N/A   Mostly Cloudy
1:54 PM 69.1 °F 51.1 °F 53% 29.73 in 10.0 mi South 5.8 mph - N/A   Overcast
2:54 PM 70.0 °F 50.0 °F 49% 29.72 in 10.0 mi SSW 11.5 mph - N/A   Mostly Cloudy
3:54 PM 71.1 °F 48.9 °F 45% 29.71 in 10.0 mi South 9.2 mph - N/A   Mostly Cloudy
4:54 PM 71.1 °F 51.1 °F 49% 29.70 in 10.0 mi South 12.7 mph - N/A   Overcast
5:54 PM 70.0 °F 53.1 °F 55% 29.70 in 10.0 mi South 12.7 mph - N/A   Mostly Cloudy
6:54 PM 68.0 °F 51.1 °F 55% 29.70 in 10.0 mi South 12.7 mph - N/A   Overcast
7:54 PM 64.9 °F 51.1 °F 61% 29.70 in 10.0 mi South 13.8 mph - N/A   Partly Cloudy
8:54 PM 63.0 °F 48.9 °F 60% 29.72 in 10.0 mi SSE 9.2 mph - N/A   Mostly Cloudy
9:54 PM 61.0 °F 48.9 °F 64% 29.71 in 10.0 mi SE 8.1 mph - N/A   Mostly Cloudy
10:54 PM 60.1 °F 50.0 °F 69% 29.71 in 10.0 mi SE 5.8 mph - N/A   Mostly Cloudy
11:54 PM 59.0 °F 50.0 °F 72% 29.70 in 10.0 mi ESE 5.8 mph - N/A   Mostly Cloudy